TimeCST,TemperatureF,Dew PointF,Humidity,Sea Level PressureIn,VisibilityMPH,Wind Direction,Wind SpeedMPH,Gust SpeedMPH,PrecipitationIn,Events,Conditions,WindDirDegrees,DateUTC
12:54 AM,42.1,39.0,89,30.04,6.0,NNW,4.6,-,N/A,,Overcast,340,2014-03-07 06:54:00
1:54 AM,42.1,39.9,92,30.05,4.0,WNW,4.6,-,N/A,,Overcast,290,2014-03-07 07:54:00
2:54 AM,42.1,39.9,92,30.07,5.0,NW,5.8,-,N/A,,Overcast,320,2014-03-07 08:54:00
3:54 AM,42.1,39.9,92,30.06,6.0,North,3.5,-,N/A,,Overcast,360,2014-03-07 09:54:00
4:46 AM,42.8,39.2,87,30.05,8.0,Calm,Calm,-,N/A,,Overcast,0,2014-03-07 10:46:00
4:54 AM,42.1,39.9,92,30.06,8.0,Calm,Calm,-,N/A,,Overcast,0,2014-03-07 10:54:00
5:54 AM,39.9,37.9,93,30.06,5.0,Calm,Calm,-,N/A,,Mostly Cloudy,0,2014-03-07 11:54:00
6:09 AM,39.2,37.4,93,30.06,2.5,Calm,Calm,-,N/A,,Scattered Clouds,0,2014-03-07 12:09:00
6:16 AM,37.4,37.4,100,30.06,1.0,Calm,Calm,-,N/A,,Partly Cloudy,0,2014-03-07 12:16:00
6:23 AM,39.2,37.4,93,30.05,0.5,Calm,Calm,-,N/A,Fog,Fog,0,2014-03-07 12:23:00
6:41 AM,35.6,35.6,100,30.06,0.2,Calm,Calm,-,N/A,Fog,Fog,0,2014-03-07 12:41:00
6:54 AM,37.0,36.0,96,30.07,0.5,Calm,Calm,-,N/A,Fog,Fog,0,2014-03-07 12:54:00
7:28 AM,39.2,39.2,100,30.06,2.0,Calm,Calm,-,N/A,,Mostly Cloudy,0,2014-03-07 13:28:00
7:36 AM,41.0,39.2,93,30.07,5.0,Calm,Calm,-,N/A,,Mostly Cloudy,0,2014-03-07 13:36:00
7:54 AM,41.0,39.9,96,30.07,3.0,Calm,Calm,-,N/A,,Overcast,0,2014-03-07 13:54:00
8:20 AM,42.8,41.0,93,30.06,1.0,East,3.5,-,N/A,,Overcast,80,2014-03-07 14:20:00
8:44 AM,42.8,39.2,87,30.07,5.0,Calm,Calm,-,N/A,,Overcast,0,2014-03-07 14:44:00
8:54 AM,43.0,41.0,93,30.08,10.0,Calm,Calm,-,N/A,,Scattered Clouds,0,2014-03-07 14:54:00
9:54 AM,48.9,42.1,77,30.11,10.0,SE,5.8,-,N/A,,Partly Cloudy,140,2014-03-07 15:54:00
10:54 AM,53.1,42.1,66,30.11,10.0,East,3.5,-,N/A,,Partly Cloudy,90,2014-03-07 16:54:00
11:54 AM,57.0,42.1,57,30.09,10.0,West,3.5,-,N/A,,Partly Cloudy,280,2014-03-07 17:54:00
12:54 PM,59.0,42.1,53,30.06,10.0,South,4.6,-,N/A,,Partly Cloudy,180,2014-03-07 18:54:00
1:54 PM,61.0,41.0,48,30.04,10.0,SSW,4.6,-,N/A,,Partly Cloudy,210,2014-03-07 19:54:00
2:54 PM,62.1,39.9,44,30.02,10.0,NE,3.5,-,N/A,,Scattered Clouds,50,2014-03-07 20:54:00
3:54 PM,62.1,39.9,44,30.00,10.0,Calm,Calm,-,N/A,,Mostly Cloudy,0,2014-03-07 21:54:00
4:54 PM,62.1,41.0,46,29.99,10.0,Calm,Calm,-,N/A,,Mostly Cloudy,0,2014-03-07 22:54:00
5:54 PM,55.0,46.0,72,30.00,10.0,Calm,Calm,-,N/A,,Mostly Cloudy,0,2014-03-07 23:54:00
6:54 PM,52.0,45.0,77,30.01,10.0,Calm,Calm,-,N/A,,Mostly Cloudy,0,2014-03-08 00:54:00
7:54 PM,50.0,45.0,83,30.04,10.0,Calm,Calm,-,N/A,,Mostly Cloudy,0,2014-03-08 01:54:00
8:54 PM,46.9,43.0,86,30.05,10.0,Calm,Calm,-,N/A,,Mostly Cloudy,0,2014-03-08 02:54:00
9:54 PM,45.0,41.0,86,30.05,10.0,Calm,Calm,-,N/A,,Mostly Cloudy,0,2014-03-08 03:54:00
10:54 PM,43.0,39.9,89,30.04,10.0,Calm,Calm,-,N/A,,Mostly Cloudy,0,2014-03-08 04:54:00
11:54 PM,43.0,41.0,93,30.04,10.0,Calm,Calm,-,N/A,,Clear,0,2014-03-08 05:54:00